GFSWCAN_prec_radar_327.txt.gz
Reflectivity
0 -4 -9 -8 -6 -8 -20 -9 17 7 13 -13 -20 -20 -20 -20 19 16 -8 -20 21 3 -3 -20 26 39 26 7 -7 -2 22 29 18 5 -17 -20 -20 -20 -20 -20 -20 -20 -20 -20 -20 -20 -20 -20 -20 -20 -20 -20 -20 -20
-20 8 4 -14 -20 -20 -20 -13 -0 15 12 3 -5 -20 -20 -20 19 20 11 -14 -16 8 -10 -20 10 9 17 17 15 12 12 13 12 10 -16 -20 -20 -20 -20 -20 -20 -20 -20 -20 -20 -20 -20 -20 -20 -20 -20 -20 -20 -20
-19 6 -13 -20 -20 -20 8 19 21 16 21 10 -2 -20 -20 19 18 24 15 -18 4 12 -4 -20 -20 -12 23 9 15 20 17 9 25 -0 -12 -20 -20 -20 -20 -20 -20 -20 -20 -20 -20 -20 -20 -20 -20 -20 -20 -20 -20 -20
-3 10 -6 -20 -20 -19 -6 18 20 21 19 -20 10 11 18 18 19 31 1 -20 16 -1 -4 -20 11 -5 9 3 -13 11 9 15 25 12 -19 -20 -20 -20 -20 -20 -20 -20 -20 -20 -20 -20 -20 -20 -20 -20 -20 -20 -20 -20
6 -20 -20 0 -10 5 1 17 18 17 19 -20 -20 16 19 15 33 20 -20 -20 -12 6 24 2 -20 -20 -2 17 -12 -3 -10 8 14 23 11 -17 -20 -20 -20 -20 -20 -20 -20 -20 -20 -20 -20 -20 -20 -20 -20 -20 -20 -20
11 -20 -19 -20 -19 -8 -19 14 12 14 6 10 20 15 21 32 29 18 -19 -20 -20 -20 -10 3 -20 -20 -20 -20 -20 -20 8 21 4 -17 -14 2 -20 -20 -20 -20 -20 -20 -20 -20 -20 -20 -20 -20 -20 -20 -20 -20 -20 -20
7 -20 -19 -20 -8 -14 -20 -20 10 4 -20 20 20 19 28 25 30 5 -20 -9 -20 -15 1 2 -20 -20 -20 -19 -18 -20 8 16 31 23 -16 -20 -20 -20 -20 -20 -20 -20 -20 -20 -20 -20 -20 -20 -20 -20 -20 -20 -20 -20
-20 10 -1 2 -12 -14 -20 15 -20 -17 18 17 18 27 28 32 13 -20 1 -5 3 20 22 12 -16 -20 -15 23 23 12 22 31 34 28 11 -20 -20 -20 -20 -20 -20 -20 -20 -20 -20 -20 -20 -20 -20 -20 -20 -20 -20 -20
-11 -20 -20 -20 -20 15 -12 13 6 10 3 20 29 37 35 31 -18 -20 -20 0 25 31 -1 -6 6 1 25 31 37 15 31 23 26 27 7 4 3 -20 -20 -20 -20 -20 -20 -20 -20 -20 -20 -20 -20 -20 -20 -20 -20 -20
17 19 18 15 -20 6 15 10 -5 12 25 31 36 29 18 -20 -20 21 1 -20 11 33 23 8 -19 15 20 25 45 29 31 30 37 24 19 14 -13 -20 -18 -13 -20 -20 -20 -20 -20 -20 -20 -20 -20 -20 -20 -20 -20 -20
15 15 16 -15 -20 -11 -19 7 11 37 33 36 27 -9 -17 -17 7 -13 -20 -15 -6 19 -0 -14 0 17 21 38 24 23 39 37 31 24 10 7 -12 -19 -3 -18 -20 -20 -20 -20 -20 -20 -20 -20 -20 -20 -20 -20 -20 -20
-4 15 18 3 -4 2 -7 2 24 36 27 -16 -15 -11 2 -11 6 -11 -20 -6 -17 -16 10 -20 7 13 11 40 26 29 30 22 11 -20 -17 -20 3 1 -16 -20 -20 -20 -20 -20 -20 -20 -20 -20 -20 -20 -20 -20 -20 -20
13 -1 17 -20 -4 14 -20 17 26 10 -19 1 11 -14 -20 -20 15 -15 -16 -20 -17 -6 10 -16 22 11 39 31 36 35 13 25 -2 -20 -20 -20 12 -4 -20 -20 -20 -20 -20 -20 -20 -20 -20 -20 -20 -20 -20 -20 -20 -20
14 17 18 10 16 -9 13 5 11 -4 -20 -20 -20 -20 -20 -20 20 -9 -20 -20 -20 -20 7 -20 4 -8 36 23 23 19 13 -7 -20 -20 -20 -10 11 -3 -20 -20 -20 -20 -20 -20 -20 -20 -20 -20 -20 -20 -20 -20 -20 -20
11 13 -4 18 5 -16 10 6 11 -20 -20 -20 -20 -20 -20 -20 12 -20 -20 -20 -19 -3 20 -15 -4 3 11 14 10 -18 -20 -19 -20 -20 -20 -16 2 -20 -20 -20 -20 -20 -20 -20 -20 -20 -20 -20 -20 -20 -20 -20 -20 -20
12 11 12 15 15 16 14 13 15 -5 -16 -20 -13 -5 -20 -3 7 -15 -20 -20 -14 -12 21 24 -13 -2 7 21 25 0 -20 -20 -20 -20 -20 -20 -19 -20 -20 -20 -20 -20 -20 -20 -20 -20 -20 -20 -20 -20 -20 -20 -20 -20
19 21 14 18 17 16 14 32 31 9 -19 -13 -20 -20 -20 -3 -2 9 -19 -20 19 29 21 23 13 -20 -17 7 19 -19 -20 -20 -20 -20 -20 -16 -11 -20 -20 -20 -20 -20 -20 -20 -20 -20 -20 -20 -20 -20 -20 -20 -20 -20
16 -16 -20 19 21 22 28 32 15 -0 -9 -20 -20 -20 -20 -17 4 -15 -20 -20 30 24 19 -20 -20 -20 -11 1 -18 -20 -20 -20 -16 -20 -20 -20 -20 -20 -20 -20 -20 -20 -20 -20 -20 -20 -20 -20 -20 -20 -20 -20 -20 -20
-10 -20 -19 25 25 29 26 23 10 -3 -20 -20 -20 -20 -10 -3 1 -20 -20 -20 12 29 30 -2 -16 -20 -20 -20 -20 -20 -9 10 2 -20 -20 -20 -20 -20 -20 -20 -20 -20 -20 -20 -20 -20 -20 -20 -20 -20 -20 -20 -20 -20
-4 -20 2 29 18 11 12 13 -16 -16 14 -20 -20 -19 -19 -20 -20 -20 -20 -8 34 25 32 35 -14 -20 -20 -20 -20 -20 -6 -3 -18 -20 -20 -20 -20 -20 -20 -20 -20 -20 -20 -20 -20 -20 -20 -20 -20 -20 -20 -20 -20 -20
4 20 12 13 21 18 -20 -20 -20 -20 -11 -6 -11 -4 0 -20 -20 -20 -20 4 38 29 31 -7 -20 -20 -20 -20 -20 1 -13 -17 -19 -18 -20 -18 -11 -20 -20 -20 -20 -20 -20 -20 -20 -20 -20 -20 -20 -20 -20 -20 -20 -20
26 21 29 26 14 -20 -11 17 -20 -20 -20 -17 -20 21 11 5 -20 -20 -19 -5 17 18 27 26 -20 -20 -20 -20 -20 -20 -12 -2 -10 -20 -20 -20 -19 -19 -20 -20 -20 -20 -20 -20 -20 -20 -20 -20 -20 -20 -20 -20 -20 -20
24 16 24 12 -14 -18 -2 29 6 -20 -11 -16 2 8 8 7 -16 -9 0 -14 -19 -20 -20 -10 17 -20 -20 -6 -7 -20 -5 0 -20 -20 -20 -20 -20 -20 -20 -20 -20 -20 -20 -20 -20 -20 -20 -20 -20 -20 -20 -20 -20 -20
-14 9 -11 -20 -0 14 -20 10 -1 12 -12 -16 14 14 15 14 -18 -8 11 -11 -18 -20 -20 -20 -19 -17 12 35 11 2 6 -4 -9 -18 -17 -20 -20 -20 -20 -20 -20 -20 -20 -20 -20 -20 -20 -20 -20 -20 -20 -20 -20 -20
-9 13 -20 1 -20 16 -12 -20 -10 18 17 -1 5 17 27 6 -20 2 17 -20 -20 -20 -20 -20 -20 6 28 13 15 18 -10 -19 -16 -16 -20 -19 -4 -10 -20 -20 -20 -20 -20 -20 -20 -20 -20 -20 -20 -20 -20 -20 -20 -20
-11 -20 -18 -20 -20 21 -14 -20 -19 -3 -11 -17 -19 -20 -10 -9 7 5 -20 -14 -20 -20 -20 -20 -20 -20 -20 12 19 21 14 5 6 -3 6 -8 -20 -20 -20 -20 -20 -20 -20 -20 -20 -20 -20 -20 -20 -20 -20 -20 -20 -20
-15 -20 -19 -20 -19 -4 -20 -20 -4 4 -20 -20 2 4 10 -0 -9 -20 -2 -4 -11 -11 -20 -20 6 2 -10 19 20 19 9 -15 2 9 4 -9 -20 -20 -20 -20 -20 -20 -20 -20 -20 -20 -20 -20 -20 -20 -20 -20 -20 -20
9 -15 -15 -19 -20 -20 -20 -19 -4 -9 -5 2 26 22 -13 -20 -9 -20 -20 -20 -20 -20 -20 -20 -20 -20 10 27 23 24 17 -14 -20 -20 -20 -20 -20 -20 -20 -20 -20 -20 -20 -20 -20 -20 -20 -20 -20 -20 -20 -20 -20 -20
-17 -20 -20 -20 -20 -20 -12 -16 -20 -19 2 12 23 -4 -15 12 -18 -20 -20 -20 -20 -20 -20 -20 -20 -6 16 14 11 -10 -17 -4 -20 -20 -20 -20 -20 -20 -20 -20 -20 -20 -20 -20 -20 -20 -20 -20 -20 -20 -20 -20 -20 -20
-19 -20 -20 -20 -20 -9 -14 -15 -10 6 10 -9 2 -16 -20 -15 -17 -20 -20 -20 -20 -20 -20 -20 -6 12 10 11 13 13 11 2 -20 -20 -20 -20 -20 -20 -20 -20 -20 -20 -20 -20 -20 -20 -20 -20 -20 -20 -20 -20 -20 -20
-20 -20 -20 -20 -20 -19 -17 -16 -7 -9 -20 -20 -20 -20 -20 -13 -17 -15 -17 -20 -20 -20 -10 18 23 18 9 7 10 2 -12 -12 -20 -20 -20 -20 -20 -20 -20 -20 -20 -20 -20 -20 -20 -20 -20 -20 -20 -20 -20 -20 -20 -20
-20 -20 -20 -20 -20 -18 -20 -20 -20 -20 -20 -20 -20 -20 -20 -20 -20 -19 -16 -20 -12 7 6 -0 -14 -3 9 8 3 -4 3 7 -20 -20 -20 -20 -20 -20 -20 -20 -20 -20 -20 -20 -20 -20 -20 -20 -20 -20 -20 -20 -20 -20
-20 -20 -20 -20 -20 -20 -20 -20 -20 -20 -20 -20 -20 -20 -20 -20 -20 -20 -15 -10 -3 2 -17 -8 -20 -20 -20 -8 4 -2 -20 -20 -20 -20 -20 -20 -20 -20 -20 -20 -20 -20 -20 -20 -20 -20 -20 -20 -20 -20 -20 -20 -20 -20

GFSWCAN_prec_radar_333.txt.gz
Reflectivity
-20 -20 -20 -20 -20 -20 -20 -20 -20 -14 7 -8 12 2 -20 12 -20 -20 -20 0 23 15 3 -9 -8 -0 -1 -5 13 19 18 13 -4 7 11 -12 -8 -17 -20 -20 -20 -20 -20 -20 -20 -4 -20 -20 -20 -20 -20 -20 -20 -20
-20 -20 -20 -20 -20 -20 -20 -20 -9 -14 8 -20 -20 -19 11 12 -20 -20 -20 -19 22 24 3 -19 3 -20 -20 -7 -5 28 16 7 -20 -20 -20 -0 -1 -20 -20 -20 -20 -20 -20 -20 -20 -20 -20 -20 -20 -20 -20 -20 -20 -20
-20 -20 -20 -20 -20 -20 -20 -20 -20 -20 -20 -20 -14 -14 15 7 1 -20 -20 -18 22 23 -13 -1 -7 -20 -20 -20 -20 -3 -12 24 22 -9 14 -9 -20 -20 -20 -20 -20 -20 -20 -20 -20 -20 -20 -20 -20 -20 -20 -20 -20 -20
-17 -20 -20 -20 -20 -20 -20 -20 -20 -20 -20 -20 -5 14 17 13 -8 -20 -19 -7 21 22 18 -15 -20 -20 -20 -20 -20 -20 -8 25 8 12 -13 -6 -20 -20 -20 -20 -20 -20 -20 -20 -20 -20 -20 -20 -20 -20 -20 -20 -20 -20
-2 -2 -20 -20 -20 -20 -20 -20 -20 -20 -20 -20 -20 -20 13 12 -17 -15 6 3 19 22 21 17 -4 -20 -20 -20 -20 -20 -20 12 23 14 14 -4 -20 -20 -20 -20 -20 -20 -20 -20 -20 -20 -20 -20 -20 -20 -20 -20 -20 -20
22 -5 -18 -20 -20 -20 -20 -20 -20 -20 -20 -20 -20 9 14 14 -20 17 -18 18 19 21 23 12 -20 -20 -20 -20 -19 1 19 23 31 25 16 18 -18 -6 -12 -20 -20 -20 -20 -20 -20 -20 -20 -20 -20 -20 -20 -20 -20 -20
23 8 6 2 -20 -20 -20 -20 -20 -18 13 -13 10 19 -12 9 10 18 -0 13 -16 -17 24 13 -15 -20 -20 -20 -20 16 26 23 33 35 30 22 25 -17 -20 -20 -20 -20 -20 -20 -20 -20 -20 -20 -20 -20 -20 -20 -20 -20
12 14 -1 -18 -20 -20 -20 -20 -20 -20 13 -20 -11 -4 15 -13 17 21 -20 -15 -13 24 21 9 -1 -20 -20 -11 8 15 27 26 36 20 32 20 20 4 -1 -20 10 -17 -20 -20 -20 -20 -20 -20 -20 -20 -20 -20 -20 -20
17 3 -2 -20 -20 -20 -20 -20 -20 -20 -20 -20 -1 10 22 19 26 7 7 24 25 2 21 3 4 5 20 20 17 15 28 25 6 19 26 28 32 24 -18 -3 11 -12 -20 -20 -20 -20 -20 -20 -20 -20 -20 -20 -20 -20
2 -16 -20 -20 -20 -20 -20 -20 -4 12 11 -9 -2 24 25 22 2 -19 40 35 26 22 20 6 -19 -20 26 25 19 23 23 23 24 11 -1 6 -6 -20 -20 -20 -20 -20 -20 -20 -20 -20 -20 -20 -20 -20 -20 -20 -20 -20
-20 -20 -20 -20 -20 -20 -20 -18 8 15 22 -11 22 26 15 15 23 34 33 30 15 19 6 -11 -20 6 -0 33 19 16 8 -20 11 -8 21 -11 -18 -20 -20 -20 -6 -8 -20 -20 -20 -20 -20 -20 -20 -20 -20 -20 -20 -20
-5 -20 -20 -20 -20 -4 -3 0 4 21 -15 -1 30 24 31 29 26 19 20 9 16 -11 -20 -3 -20 -20 -10 20 29 20 3 5 6 -11 13 -4 -20 -20 -20 -20 -20 -8 -20 -12 -20 -20 -20 -20 -20 -20 -20 -20 -20 -20
1 -20 -20 -20 -19 7 11 -14 -4 7 2 23 28 30 32 17 19 6 16 18 10 -20 -20 12 17 -20 -0 18 26 -7 19 1 35 35 12 -20 -20 -20 -20 -20 -20 -3 -19 -12 -20 -20 -20 -20 -20 -20 -20 -20 -20 -20
-4 -6 1 -20 6 13 17 4 16 6 37 24 25 19 -3 -1 12 -20 -20 -20 -20 -20 -11 15 18 18 18 13 13 12 -1 -9 20 27 -20 -20 -20 -19 -7 -20 -20 -12 -20 -20 -20 -20 -20 -20 -20 -20 -20 -20 -20 -20
15 -14 -8 9 -1 -6 -19 5 2 8 27 27 -13 14 1 -10 -19 -19 6 7 -11 -20 -20 5 3 32 30 -14 5 -18 8 16 35 27 -8 -20 -20 1 -3 -20 -20 -20 -20 -20 -20 -20 -20 -20 -20 -20 -20 -20 -20 -20
-20 20 15 11 -7 -4 16 16 19 15 37 25 -3 5 -20 5 -6 8 -20 16 -20 -20 -17 21 9 32 -10 16 29 -14 4 18 26 6 -19 -19 -7 -14 0 -17 0 6 -17 -20 -20 -20 -20 -20 -20 -20 -20 -20 -20 -20
20 6 15 15 -20 18 20 30 27 26 24 7 -2 7 -20 -20 -20 -16 -20 21 -19 -20 18 31 14 30 -4 3 -0 -20 -0 20 16 11 -14 -3 -20 -4 7 9 24 8 -10 -20 -20 -20 -20 -20 -20 -20 -20 -20 -20 -20
21 20 6 -16 20 23 27 27 32 29 16 -5 7 -20 -11 -20 20 20 12 -3 -20 -20 12 22 18 27 20 20 3 2 -16 27 33 11 -16 -19 -20 -8 2 9 18 8 -2 -3 0 -5 -6 -10 -20 -20 -20 -20 -20 -20
24 18 14 21 23 35 31 31 29 2 9 14 -4 -4 -1 -20 -20 -17 -20 -20 -20 -20 7 8 8 8 -1 17 21 35 33 37 26 11 -3 -11 -14 -6 -2 12 -5 -17 -1 -6 -20 -20 -20 -20 -20 -20 -20 -20 -20 -20
22 4 7 18 11 7 14 17 -2 21 19 10 4 -1 -20 -20 -20 -20 -20 -20 -20 -20 -20 6 -13 -2 31 20 29 22 24 36 25 10 -1 -4 4 8 -0 13 3 -20 -20 -20 -20 -20 -20 -20 -20 -20 -20 -20 -20 -20
20 -2 -16 17 22 23 22 -18 18 18 17 19 11 -15 -20 -20 -20 4 -20 -20 -20 -20 -20 -20 -19 -5 24 11 20 4 19 24 19 -1 -20 -10 -20 -20 -20 -10 -20 -20 -20 -20 -20 -20 -20 -20 -20 -20 -20 -20 -20 -20
27 19 24 22 20 6 -9 -20 22 -17 15 -20 8 18 14 16 14 -20 16 18 -14 -19 -20 -20 5 -7 -20 -8 -7 12 12 10 15 12 -4 -10 10 -5 -20 -19 -20 -20 -20 -20 -20 -20 -20 -20 -20 -20 -2 -19 -20 -20
22 10 25 24 17 2 8 -20 -12 20 -1 -20 -20 -10 -7 -20 -20 0 35 21 4 -3 -20 -19 -18 -20 -20 -17 9 13 2 -7 -0 5 6 0 11 8 -20 -20 -20 -20 -20 -20 -20 -20 -20 -20 -20 -4 -20 -20 -20 -20
-20 25 -3 -12 16 -8 -1 -3 -17 9 -15 -18 -18 4 -20 -20 -20 19 10 -20 -19 -20 -20 -20 -20 -20 -20 -20 -7 2 1 -20 -7 6 7 -0 -18 4 -2 -11 -20 -20 -20 -20 -20 -20 -20 -0 -17 -20 -20 -20 -20 -20
14 12 25 18 13 16 10 -20 -19 -10 -20 -17 9 21 15 -10 4 7 -20 -20 -20 -20 -20 -20 -20 -20 -20 -20 -20 -5 -18 -12 -3 -10 2 -19 -20 -20 -20 -20 -19 -20 -9 5 -4 -1 1 -2 -1 -5 -20 -20 -20 -20
15 5 15 6 -16 -13 -20 -20 -20 -8 23 28 16 21 -2 -0 17 1 -17 -20 -20 -20 -18 -20 -16 -20 -20 -20 -19 -20 -20 -3 -0 3 3 -4 -14 -20 -20 -12 1 7 7 5 -16 -20 -7 -8 -20 -20 -20 -20 -20 -20
8 -12 -10 -8 -20 -20 11 12 3 12 12 -3 8 18 17 9 -5 -8 -20 -20 -20 -20 -20 -20 -20 -20 -20 -20 -20 -20 -19 -20 -20 -20 -19 -20 -20 -20 -20 -6 6 10 7 -12 -20 -20 -20 -20 -20 -20 -20 -20 -20 -20
20 -20 -20 -20 -20 -20 -20 1 17 -12 -20 -1 20 14 4 -10 21 6 -20 -20 -20 -20 -20 -20 -20 -20 -20 -20 -20 -20 -20 -20 -20 -20 -20 -20 -20 -20 -20 -5 4 1 -9 -5 1 -8 -20 -20 -20 -20 -20 -20 -20 -20
-19 -20 3 2 9 -20 0 -20 -8 30 -9 -14 5 2 -11 -20 -12 -4 -9 -20 -20 -20 -20 -20 -19 -20 -20 -20 -20 -20 -20 -20 -20 -20 -20 -15 -6 -6 -15 -8 -20 -7 5 1 -20 -20 -20 -20 -20 -20 -20 -20 -20 -20
-18 -15 5 -12 -20 -20 -12 -20 -5 -18 -20 -20 -18 -20 -20 -20 -20 -19 -20 -14 -15 -13 -12 -18 -20 -20 -20 -20 -20 -20 -14 -6 -17 0 9 3 -5 -9 5 9 10 0 -20 -17 -20 -20 -20 -20 -20 -20 -20 -20 -20 -20
-20 -20 -20 -20 -15 -5 -20 -4 -1 2 0 -0 -1 4 7 7 -3 -20 -20 -11 -7 -15 -20 -20 -4 -20 -20 -20 -20 -16 -6 22 27 23 30 20 15 9 -9 -5 -17 -9 -5 -18 -20 -20 -20 -20 -20 -20 -20 -20 -20 -20
-1 -3 -20 -20 -12 -2 0 4 5 4 1 16 23 22 22 10 -1 -20 3 -11 -20 -20 -20 -20 -20 -20 -20 -20 -7 19 18 30 24 12 3 15 -6 -11 -11 -20 -20 -20 -20 -20 -20 -20 -20 -20 -20 -20 -20 -20 -20 -20
-20 -6 -17 -7 -0 1 -3 2 -11 9 15 11 7 7 3 6 -12 -2 0 -0 -3 -11 -19 -18 0 -16 -18 -11 15 20 25 29 30 25 15 13 6 -13 -20 -20 -20 -20 -20 -20 -20 -20 -20 -20 -20 -20 -20 -20 -20 -20

GFSWCAN_prec_radar_339.txt.gz
Reflectivity
32 32 15 -20 -20 -20 -20 -20 -20 -20 -20 -20 -20 -18 -20 -20 -20 -20 -20 -20 -20 14 -20 -20 -20 -20 -6 -1 -2 -20 -12 12 -1 -20 29 -8 -20 -20 -20 -20 -20 -20 -20 -20 -20 -20 -20 -20 -20 -20 -20 -20 -20 -20
34 34 13 -20 -20 -20 -20 -20 -20 -20 -20 -20 -18 -20 -20 0 -6 -18 -20 -20 -20 1 -20 -20 -20 -20 -20 -20 -6 -20 4 17 29 10 8 28 21 -20 -20 -20 -20 -20 -20 -20 -20 -20 -20 -20 -20 -20 -20 -20 -20 -20
34 30 23 0 -20 -20 -20 -20 -20 -20 -20 -20 -20 -20 0 -8 -0 -20 -20 -20 -20 -20 -20 -20 -20 -20 -20 -20 -13 7 -20 20 23 37 34 15 -18 -20 -20 -20 -20 -20 -20 -20 -20 -20 -20 -20 -20 -20 -20 -20 -20 -20
33 21 17 -19 -20 -20 -20 -20 -20 -20 -20 -20 -20 -20 -20 10 3 -20 -20 -20 -20 -7 -8 -20 -20 -20 -20 -20 -20 -20 -20 -20 8 25 27 8 14 -19 -20 -20 -20 -20 2 6 -20 -20 -20 -20 -20 -20 -20 -20 -20 -20
29 31 19 -0 -20 -20 -20 -20 -20 -20 -20 -20 -20 -20 -11 -20 -7 -19 -20 -20 -20 9 -5 -16 -20 -20 -20 -20 -20 -20 -14 -4 5 25 38 30 -3 -7 -20 -20 -20 -20 -18 4 -3 -20 -20 -20 -20 -20 -20 -20 -20 -20
39 36 30 -4 -20 -20 -20 -20 -20 -20 -20 -20 -20 -20 -20 -20 14 -8 -20 -20 -20 -20 -9 -8 -20 -20 -20 -20 -20 -20 -20 7 10 -8 -1 11 -20 22 9 -20 -20 -20 -20 -20 -20 -7 -20 -20 -20 -20 -20 -20 -20 -20
0 28 35 30 -5 -20 -20 -20 -20 -20 -20 -20 -20 -20 -20 -20 -20 -4 -20 -20 -20 -18 18 -1 -20 -20 -20 -20 -20 -20 -14 7 2 1 -16 -0 -16 33 15 -20 -20 -10 4 26 21 -14 -12 -20 -20 -20 -20 -20 -20 -20
35 30 37 33 -18 -20 -20 -20 -20 -20 -20 -20 -20 -20 -20 -20 -1 14 -20 -20 -20 20 10 15 -19 -20 -20 -20 -20 -6 8 11 10 11 11 15 12 4 -20 -20 -20 -20 -15 19 0 -20 -20 -20 -20 -20 -20 -20 -20 -20
31 30 33 32 -6 -20 -20 -20 -20 -20 -20 -20 -20 -20 -18 -1 -1 -20 -20 -9 7 25 27 -2 -15 -20 -20 -20 -20 3 0 13 -20 -11 -4 13 -20 -14 -20 -20 -20 -20 -20 -20 -2 -20 -20 -20 -20 -20 -20 -20 -20 -20
24 32 30 31 -0 -20 -20 -20 -20 -20 -20 -13 -2 -20 14 -5 -6 -20 2 10 -6 6 2 -13 2 -20 -20 9 19 -17 11 23 -20 1 6 -17 -20 -20 -20 -20 -20 -20 -20 -20 -20 -20 -20 -20 -20 -20 -20 -20 -20 -20
6 22 34 32 25 10 -4 -20 -20 -20 -13 -0 -10 -20 -7 -9 -20 18 14 -2 -20 -3 -3 -20 -20 2 -20 9 3 35 19 5 10 -20 -20 -20 -20 -20 -20 -20 -20 -20 -20 -20 -20 -20 -20 -20 -20 -20 -20 -20 -20 -20
20 19 27 34 35 26 -14 -20 -20 -15 -12 -20 -20 2 19 7 17 -20 -19 -0 -9 -11 16 -20 -20 -20 -20 -20 16 26 16 2 -13 17 22 -16 -20 -20 -20 -20 -20 -20 -20 -18 7 -19 -20 -20 -20 -20 -20 -20 -20 -20
12 20 35 24 11 -20 -20 -20 -18 -3 -20 -20 13 15 -20 16 27 -18 13 -2 11 -9 -20 -20 -20 -20 -20 -20 -17 32 15 16 3 13 -14 -20 -20 -20 -20 -20 -20 -20 -20 -20 -18 -20 -20 -20 -20 -20 -20 -20 -20 -20
15 31 34 27 -18 -20 -20 -20 -19 -1 -20 4 -20 11 -16 0 0 -20 -20 -20 -20 24 -19 -20 22 9 -19 -18 -20 -18 22 28 24 -18 -20 -20 -20 -20 -20 -20 -20 -20 -20 -20 -20 -20 -20 -20 -20 -20 -20 -20 -20 9
23 33 25 6 -11 -20 -20 -20 -9 -8 -20 -13 7 -20 -10 -20 -20 -20 -20 -20 -20 -20 -19 -5 -4 -20 16 18 -17 -12 -16 -20 -13 -17 -20 -20 -9 -20 -20 -20 -20 -20 -20 -20 -20 -20 -20 -20 -20 -20 -20 -20 -18 18
38 30 20 6 3 -7 -19 4 17 14 22 -20 4 -10 -0 -13 -20 -20 11 -2 -20 10 -14 -13 13 21 12 10 23 -20 8 -20 8 16 9 16 4 -20 -20 -20 -20 -20 -20 -20 -20 -20 -20 -20 -20 -20 -20 -20 -20 25
27 23 9 6 -17 -19 15 -20 10 19 -7 -11 -20 -20 -20 -20 -20 23 -20 -15 -3 4 12 10 -17 17 16 -4 14 24 -8 -0 22 13 -11 -20 -20 -20 -20 -18 -20 -20 -20 -20 -20 -20 -20 -20 -20 -20 -20 -20 -19 17
-19 -20 3 15 6 8 5 -2 -16 5 -0 -20 -20 -20 -20 -20 -20 -20 -14 -5 11 5 -20 -20 -20 -20 -20 7 31 15 21 30 12 -2 19 8 -19 -20 -20 -17 3 -20 -20 -20 -20 -20 -20 -20 -20 -20 -20 -17 12 10
-20 -20 6 7 -20 12 12 17 11 -2 -20 -20 -20 -20 -20 -20 -20 -20 -20 -7 -1 17 -16 -20 -20 -20 -20 -20 -0 2 -2 -8 -3 -20 -10 5 -1 -20 -20 -20 -20 -20 -20 -20 17 -11 -20 -20 -20 -15 8 -4 -20 6
-10 -9 -2 -20 -20 -16 16 -4 -9 1 7 -20 -20 -20 -20 -20 -20 -20 -20 -15 2 -20 -20 -20 -20 -20 -20 -20 -20 12 12 29 26 7 16 24 -19 -20 -18 11 7 -20 -14 -12 -18 10 -12 -20 2 18 6 -20 13 21
17 18 19 1 7 6 13 13 -20 -20 -20 10 -20 -20 -20 -20 -20 -20 -20 -20 -20 -20 -20 -20 -20 -20 -20 -20 -20 -20 -20 8 11 28 18 -12 2 21 24 20 12 17 15 13 5 3 10 16 23 19 16 21 25 26
7 22 26 12 -0 26 24 -16 -10 -18 -20 -20 16 -18 -20 -20 -20 -20 -20 -18 -20 -20 -20 -20 -20 -20 -20 -20 -20 -20 -20 -20 -16 17 -5 1 24 19 21 21 17 18 27 26 20 22 22 24 23 22 24 28 26 20
21 17 17 23 9 22 -7 -20 21 6 16 -20 -13 11 -20 -20 -20 -20 -20 -20 -20 -20 -20 -20 -20 -20 -20 -20 -20 -20 -20 -20 -18 4 7 23 15 17 14 33 32 24 23 23 19 23 27 26 25 25 28 23 16 6
-17 20 12 -4 6 15 8 14 11 11 10 10 3 -15 -20 -20 -20 -20 -20 -20 -20 -20 -20 -20 -20 -20 -20 -20 -20 -20 -20 -11 19 32 23 6 25 8 31 32 30 30 19 21 26 22 17 20 23 25 19 7 11 9
18 12 20 20 1 19 6 17 18 9 -20 -20 -11 -20 -20 -20 -20 -20 -20 -20 -20 -20 -20 -20 -20 -20 -9 -0 6 2 18 18 7 14 31 25 26 28 22 32 32 23 13 3 13 21 23 24 21 17 14 12 10 -1
16 1 -20 2 9 -20 -20 -20 -20 -20 -20 -20 -20 -20 -20 -20 -20 -20 -20 -13 -17 -20 -20 -20 -20 -20 -20 -4 -1 4 8 1 -17 -13 -4 24 18 25 21 20 19 20 18 19 19 20 17 14 13 12 9 0 -3 -20
19 -20 -20 -20 -20 -20 -20 -20 -20 -20 -20 -20 -20 -20 -20 -20 -20 -7 13 34 39 40 8 -20 -20 -20 -20 -8 -9 -20 -20 -20 -20 -20 6 14 11 10 -7 11 18 23 32 27 17 18 17 14 11 10 8 -1 -7 -17
-9 -20 -20 -20 -20 -20 -20 -20 -20 -20 -20 -20 -20 -20 -1 2 20 32 32 26 11 27 17 -20 -20 -20 -20 -20 -20 -20 -20 -20 -20 -20 2 10 -0 9 14 9 21 25 29 29 17 15 12 5 7 -7 -17 -17 -20 -16
-20 -20 -4 -20 -20 -20 -20 -20 -20 -17 -20 2 -16 -9 -14 -20 -20 -18 6 8 10 -4 -20 -20 -16 -19 -20 -20 -20 -20 -20 -20 -20 -20 -20 -13 -4 7 5 26 15 18 16 17 14 8 -7 -10 -16 -17 -16 -6 -13 -20
-20 -20 -20 -20 -20 -20 -20 -20 -20 -20 -20 -20 -20 -20 -20 -20 -20 -20 -10 0 -20 -20 -20 -20 -20 -13 -20 -20 -20 -20 -20 -20 -20 -20 -20 -19 -6 -14 -9 17 17 13 12 14 13 18 7 -14 -19 -12 -9 -8 -8 -19
-20 -20 -20 -20 -20 -20 -20 -20 -20 -20 -20 -20 -20 -20 -20 -20 -20 -20 -20 -20 -20 -20 -20 -19 -20 1 -17 -20 -20 -20 -20 -20 -20 -20 -20 -20 -20 -20 -11 16 16 10 13 11 2 -13 -12 -5 -4 -7 -14 -12 -14 -20
-19 -20 -20 -20 -20 -20 -20 -20 -20 -20 -20 -20 -20 -20 -20 -20 -20 -20 -20 -20 -20 -20 -20 -20 -20 -20 -4 -3 -20 -20 -20 -19 -8 -20 -20 -20 -20 -20 4 14 13 8 -1 -9 5 7 1 -2 -8 -8 -14 -20 -20 -20
-20 -20 -17 -20 -20 -20 -20 -15 -20 -20 -20 -20 -20 -20 -18 -10 -19 -20 -20 -20 -20 -20 -17 -13 -20 -20 -20 -20 -20 -20 -19 -5 -2 -13 -20 -20 -20 -20 -4 -5 -3 11 12 9 9 -0 -7 -4 -8 -15 -20 -20 -20 -20

GFSWCAN_prec_radar_342.txt.gz
Reflectivity
4 22 31 40 28 15 -19 -20 -20 -20 -20 -20 -20 -20 -20 -20 -20 -20 -20 -20 -20 -20 -20 -20 -20 -20 -20 -15 -1 -18 0 9 14 -17 19 39 -14 -20 -20 -20 8 -20 -20 -20 -20 -20 -20 -20 -20 -20 -20 -20 -20 -20
-15 11 12 27 35 26 -20 -20 -20 -20 -20 -20 -20 -20 -20 -20 -20 -20 -20 -20 -20 -20 -20 -20 -20 -20 -20 -20 -17 -5 -12 24 17 12 17 34 36 -20 -20 -20 -19 9 -20 -20 -20 -20 -20 -20 -20 -20 -20 -20 -20 -20
16 21 9 26 32 8 -20 -20 -20 -20 -20 -20 -20 -20 -20 -20 -20 -20 -20 -20 -20 -20 -20 -20 -20 -20 -20 -20 -20 3 -20 -2 22 31 25 25 18 -15 -20 -20 -20 -20 -20 -10 -20 -20 -20 -20 -20 -20 -20 -20 -20 -20
-3 31 36 33 25 -10 -20 -20 -20 -20 -20 -20 -20 -20 -20 5 -4 -20 -20 -20 -20 -20 -20 -20 -20 -20 -20 -20 -20 -20 -16 -8 5 27 29 28 26 -15 -11 19 9 -20 -20 -20 -20 -20 -20 -20 -20 -20 -20 -20 -20 -20
18 32 32 28 19 -17 -20 -20 -20 -20 -20 -20 -20 -20 -19 9 10 -20 -20 -20 -20 -20 -2 -20 -20 -20 -20 -20 -20 -20 -20 -20 11 11 24 29 27 26 -1 -8 -20 -20 -20 -20 -20 -5 -20 -20 -20 -20 -20 -20 -20 -20
26 37 31 34 27 -7 -20 -20 -20 -20 -20 -20 -20 8 -20 9 -6 -20 -20 -20 -20 -20 -20 -13 -20 -20 -20 -20 -20 -20 -20 -10 4 11 2 14 32 29 25 -0 -20 -20 -20 -20 -20 -20 -20 -20 -20 -20 -20 -20 -20 -20
13 31 29 24 21 0 -20 -20 -20 -20 -20 -20 -20 -20 -18 -3 -20 -20 -20 -20 -20 -20 13 -20 -20 -20 -20 -20 -20 -20 -20 -20 -1 16 9 3 -14 7 19 7 -20 -20 -20 -20 -20 -20 -20 -20 -20 -15 -20 -20 -20 -20
3 13 35 25 26 8 -20 -20 -20 -20 -20 -20 -20 -20 -19 -14 -20 -20 -20 -20 -20 -20 2 -20 -20 -20 -20 -20 -20 -20 -16 11 13 14 10 8 -4 4 -18 -20 -20 -20 -20 -17 -11 1 7 -7 -20 -18 -20 -20 -20 -20
9 35 35 36 35 -11 -20 -20 -20 -20 -20 -20 -20 -10 -20 -10 0 -13 -20 -8 -20 -8 21 5 -20 -20 -20 -20 -20 -20 -12 16 -10 13 9 10 -20 4 -14 -20 -20 -20 6 -18 -10 -19 -20 -20 -20 -17 -14 -20 -20 -20
-7 4 13 35 36 10 -11 -20 -20 -20 -20 -12 -20 -20 -20 -20 -20 -20 18 -20 -20 2 20 -11 -6 -20 -16 12 -19 17 9 6 -10 2 -20 5 -20 -20 -20 -20 -20 -20 -20 -20 1 7 21 -20 -20 -20 -20 -3 -20 -20
19 37 23 36 33 10 -8 -19 -18 -15 -0 -20 -20 -20 -20 -17 -7 -18 -20 0 -20 -20 -2 -20 -20 -20 -20 -6 8 10 26 -20 -10 -20 -3 -20 -20 -20 -20 -20 -20 -20 -20 -20 7 11 7 4 -20 -19 -20 -20 -20 -20
2 23 34 36 26 4 7 -12 -13 -20 -20 -20 -20 -20 -3 -13 -20 -20 -19 -20 -20 -20 -20 -20 -20 -20 -20 -15 16 -13 -10 26 -18 -18 -9 -20 -20 -20 -20 -20 -20 -20 -20 -20 -20 -20 -20 -20 -20 -20 -20 -20 -20 -20
14 32 33 34 23 12 -6 -20 -18 -20 -20 -20 -20 -20 -20 -20 6 -20 -20 -20 -20 -20 -20 -20 -20 -20 -20 -20 11 17 14 2 31 20 -20 -20 -20 -20 -20 -20 -20 -20 -20 -20 -20 -20 -20 -20 -20 -20 -20 -20 -20 -20
7 18 29 34 24 21 13 -14 -20 -20 -20 -20 -20 1 -20 -20 -20 -20 -20 -20 7 7 -20 -20 -20 -15 -19 -20 -20 12 -20 -0 22 -19 -20 -20 -20 -20 -20 -20 -20 -20 -20 -20 -20 -20 -20 -20 -20 -20 -20 -20 -20 -20
32 15 29 34 33 35 25 -3 -20 -20 -20 -20 -20 -20 -19 -20 -20 -20 -17 -20 -8 5 25 -20 -18 5 -1 5 7 -20 -10 -11 -18 15 26 29 15 -20 -14 -20 -20 -20 -20 -20 -20 -20 -20 -20 -20 -20 -20 -20 -20 -18
25 23 36 37 31 14 3 -15 -20 -20 -20 -20 -15 -10 -20 -20 -20 -20 -20 6 10 -20 -19 22 18 10 -2 -9 24 -16 1 -16 -5 -10 2 2 -13 -20 -20 -20 -20 -20 -20 -20 -20 -20 -20 -20 -20 -20 -20 -20 -20 -20
30 36 38 27 8 -19 8 -19 7 -13 -20 -20 -20 -20 -20 -20 -20 -20 -20 10 24 20 15 6 4 -1 8 24 12 22 10 -16 -19 -20 -16 -13 -5 -20 -20 -20 -20 -20 -20 -20 -20 -20 -20 -20 -20 -20 -20 -20 -20 -20
27 24 24 11 9 13 -20 1 5 -20 -17 -20 -20 -20 -20 -20 -20 -20 -20 4 -5 11 -20 -15 -20 -20 -20 -20 11 16 -2 -12 -20 -20 -20 -20 -14 -4 -19 -20 -20 -20 -20 -20 -20 -20 -20 -20 -20 -20 -20 -20 -20 -20
-8 11 15 14 -1 -19 -17 4 -7 -20 -20 -20 -20 -20 -20 -20 -20 -20 -20 -20 -20 3 29 -6 -13 -20 -20 -20 -20 -9 -0 -19 -20 -16 -20 -18 15 -4 -13 -20 -20 -20 -20 -20 -20 -20 -20 -20 -20 -20 -20 -20 -20 -20
24 28 14 -5 -6 -12 -19 -5 -20 -20 -20 -20 -20 -20 -20 -20 -20 -20 -20 -20 -7 13 17 -15 -20 -20 -20 -20 -20 -20 -20 -20 -14 -20 -20 -8 -10 -20 -20 -20 -20 -20 -20 -20 -20 -20 -20 -20 -19 -12 -20 -20 -20 -17
27 16 8 10 9 -17 -20 -20 -20 -20 -20 -20 -20 -20 -20 -20 -20 -20 -20 -20 -20 15 -20 -20 -20 -20 -20 -20 -20 -20 -20 -19 21 21 16 9 -20 -8 -20 -20 -3 -15 -9 -19 -20 -20 -20 -20 -20 -8 -20 -16 -9 -5
34 31 34 30 6 -20 -20 -20 -20 -20 -20 -20 -16 -20 -20 -20 -20 -20 -20 -20 -20 -20 -20 -20 -20 -20 -20 -20 -20 -20 -20 -20 -11 -6 5 1 -20 -12 7 14 12 14 11 -19 1 -11 -20 -14 -12 7 18 11 4 12
19 2 9 20 2 -13 -20 -20 -5 -16 -20 -20 -20 6 9 -20 -20 -20 -20 -20 -20 -20 -20 -20 -20 -20 -20 -20 -20 -20 -20 -20 -20 0 10 6 -1 20 16 26 32 18 -1 -3 6 1 -12 -15 5 18 21 25 26 28
-1 8 9 -14 -20 -20 -20 -20 -20 -9 -20 -20 -20 -20 -20 -20 -20 -20 -20 -20 -20 -20 -20 -20 -20 -20 -20 -20 -20 -20 -20 -20 -20 -20 -6 18 29 3 21 28 32 30 3 -5 11 13 14 15 17 21 22 21 25 26
12 12 8 -10 -20 -20 -19 -2 1 16 -20 -20 -7 -20 -20 -20 -20 -20 -20 -20 -20 -20 -20 -20 -20 -20 -20 -20 -20 -20 -20 -20 -20 -4 26 35 33 17 16 19 23 13 7 11 19 25 26 21 19 16 19 22 21 20
4 -20 -20 -20 -20 -20 -20 -20 -20 -20 -20 -20 -20 -20 -20 -20 -20 -20 -20 -20 -16 -2 -1 18 -10 -20 -20 -20 -20 -20 -20 -14 5 18 11 20 33 24 12 13 20 22 30 22 26 27 24 21 21 21 22 21 20 19
11 0 -20 -20 -20 -20 -20 -20 -20 -20 -20 -20 -20 -20 -20 -20 -20 -20 -20 -15 4 21 31 26 23 11 -2 -20 -20 -18 10 12 -7 -19 8 35 38 32 21 21 20 18 27 24 23 20 21 22 21 19 18 19 17 16
-20 -20 -20 -20 -20 -20 -20 -20 -20 -20 -20 -20 -20 -20 -20 -20 -20 -20 -19 -9 -12 -1 -3 1 -1 -20 -19 -20 -8 -2 3 -1 -20 -20 -20 8 10 10 22 26 32 17 18 21 22 20 20 20 22 22 20 18 16 11
-20 -20 -20 -20 -20 -20 -20 -20 -20 -20 -20 -20 -20 -20 -20 -20 -20 -20 -20 -20 -2 -11 -8 -18 -3 -20 -20 -1 -10 -20 -20 -20 -20 -20 -20 -10 9 13 15 23 18 15 13 16 17 18 21 22 22 20 15 13 10 0
-20 -20 -20 -20 -20 -20 -20 -20 -20 -20 -20 -20 -20 -20 -20 -20 -20 -20 -20 -20 -20 -11 -20 -20 -20 -20 -20 9 16 7 -12 -13 -20 -20 -20 -13 1 -3 -6 6 11 16 16 16 14 16 18 18 17 1 -5 -9 -15 -20
11 -20 -20 -20 -20 -20 -20 -19 -20 -20 -20 -20 -20 -20 -20 -20 -20 -20 -20 -20 -20 -20 -20 -20 -20 -20 -17 7 12 2 -17 -20 -20 -20 -20 -15 -15 -18 -1 -18 -2 9 16 15 11 0 -11 -16 -20 -20 -20 -20 -20 -20
-19 -20 -20 -20 -20 -20 -20 -20 -20 -20 -20 -20 -20 -20 -20 -20 -20 -20 -20 -20 -20 -20 -20 -20 -20 -20 -20 -20 -11 -19 7 -20 -20 -17 -14 -3 -14 -20 -17 -15 2 -1 4 7 -1 -2 3 -9 -14 -18 -20 -20 -20 -12
-20 -20 -20 -20 -20 -20 -20 -20 -20 -20 -20 -20 -20 -20 -20 -20 -20 -20 -20 -20 -20 -20 -20 -20 -20 -20 -20 1 3 4 9 -20 -20 -14 2 -4 -19 -20 -20 -16 -9 -0 -2 4 8 1 -17 -16 -10 -19 -19 -20 -20 -20